カタログに戻る

STARLINK-32835

運用中通信VLEO
NORAD 63051·PAYLOAD·🇺🇸 United States

打ち上げ Feb 18, 2025 から Cape Canaveral Space Force Station

Loading…

次のパス (今後24時間)

TLE

最新Source: CelesTrak SupGP

元期: Sep 15, 2026, 02:17 UTC

1 63051C 25034Y   26258.09562500  .00030396  00000+0  89870-3 0  2582
2 63051  53.1576 107.1444 0001178  85.5561 218.8562 15.34352789    12

AllMySatでSTARLINK-32835をリアルタイム追跡

Download on the App Store